Regional Weather Roundup
Issued by NWS

Home | Current Version | Previous Version | Text Only | Print | Product List | Glossary On
Versions: 1 2 3 4 5 6 7 8 9 10 11 12 13 14 15 16 17 18 19 20 21 22 23 24 25 26 27 28 29 30 31 32 33 34 35 36 37 38 39 40 41 42 43 44 45 46 47 48 49 50
000
ASUS43 KTOP 220759
RWRKS

WEATHER ROUNDUP FOR KANSAS
NATIONAL WEATHER SERVICE GOODLAND KS
300 AM CDT FRI AUG 22 2014

NOTE:  "FAIR" INDICATES FEW OR NO CLOUDS BELOW 12,000 FEET WITH NO
SIGNIFICANT WEATHER AND/OR OBSTRUCTIONS TO VISIBILITY.

KSZ001>006-013>018-027>032-041>047-220900-
NORTHWEST KANSAS

CITY           SKY/WX    TMP DP  RH WIND       PRES   REMARKS
GOODLAND       CLEAR     66  58  75 S3        30.01F
HAYS           PTCLDY    77  64  65 S12       29.88F
HILL CITY      PTCLDY    72  66  81 NE3       29.90S
RUSSELL        PTCLDY    79  66  64 S12       29.86F
$$

KSZ061>065-074>080-084>089-220900-
SOUTHWEST KANSAS

CITY           SKY/WX    TMP DP  RH WIND       PRES   REMARKS
DODGE CITY     CLOUDY    78  64  61 S9        29.93S
ELKHART          N/A     72  59  64 S8          N/A
GARDEN CITY    PTCLDY    73  62  68 S9        29.93F
GREAT BEND     MOCLDY    82  66  57 S12       29.89F
LIBERAL        CLEAR     75  61  60 S5        29.96F
$$

KSZ066>073-081>083-090>101-220900-
SOUTHEAST KANSAS

CITY           SKY/WX    TMP DP  RH WIND       PRES   REMARKS
CHANUTE        CLEAR     80  70  71 S12       29.94F
COFFEYVILLE    CLEAR     80  71  74 S10       29.94F
HUTCHINSON     MOCLDY    82  70  66 S15       29.90F
NEWTON         CLEAR     81  64  57 S16       29.94F
PARSONS        CLEAR     79  70  74 S6        29.95F
WICHITA INTL   PTCLDY    81  69  67 S13       29.91F
WICHITA JABRA  CLEAR     81  69  67 S15G23    29.91F
WINFIELD       CLEAR     79  69  71 S12       29.93F
$$

KSZ007>012-019>026-033>040-048>060-102>105-220900-
NORTHEAST KANSAS

CITY           SKY/WX    TMP DP  RH WIND       PRES   REMARKS
CONCORDIA      PTCLDY    76  71  85 S10       29.86F
EMPORIA        CLEAR     79  70  74 S16       29.90F
LAWRENCE       MOCLDY    84  71  65 CALM      29.91R
MANHATTAN      CLOUDY    82  71  69 S7        29.86F
OLATHE IND     PTCLDY    79  71  76 S12       29.92S
OLATHE EXE     PTCLDY    78  71  79 S9        29.92S
SALINA         MOCLDY    84  71  65 S13       29.87F
TOPEKA BILLARD CLOUDY    84  73  69 S7        29.89F
TOPEKA FORBES  CLOUDY    82  71  69 S9        29.90R
$$



USA.gov is the U.S. government's official web portal to all federal, state and local government web resources and services.